SCP
0 0 0 0 0 0 0 0 0 0 0 0 0 0 0 0 0 0 0 0 0 0 0 0 0 0 0 0 0 0 0 0
0 0 0 0 0 0 0 0 0 0 0 0 0 0 0 0 0 0 0 0 0 0 0 0 0 0 0 0 0 0 0 0
0 0 0 0 0 0 0 0 0 0 0 0 0 0 0 0 0 0 0 0 0 0 0 0 0 0 0 0 0 0 0 0
0 0 0 0 0 0 0 0 0 0 0 0 0 0 0 0 0 0 0 0 0 0 0 0 0 0 0 0 0 0 0 0
0 0 0 0 0 0 0 0 0 0 0 0 0 0 0 0 0 0 0 0 0 0 0 0 0 0 0 0 0 0 0 0
0 0 0 0 0 0 0 0 0 0 0 0 0 0 0 0 0 0 0 0 0 0 0 0 0 0 0 0 0 0 0 0
0 0 0 0 0 0 0 0 0 0 0 0 0 0 0 0 0 0 0 0 0 0 0 0 0 0 0 0 0 0 0 0
0 0 0 0 0 0 0 0 0 0 0 0 0 0 0 0 0 0 0 0 0 0 0 0 0 0 0 0 0 0 0 0
0 0 0 0 0 0 0 0 0 0 0 0 0 0 0 0 0 0 0 0 0 0 0 0 0 0 0 0 0 0 0 0
0 0 0 0 0 0 0 0 0 0 0 0 0 0 0 0 0 0 0 0 0 0 0 0 0 0 0 0 0 0 0 0
0 -0 0 0 0 0 0 0 0 0 0 0 0 0 0 0 0 0 0 0 0 0 0 0 0 0 0 0 0 0 0 0
0 0 0 0 0 0 0 0 0 0 0 0 0 0 0 0 0 0 0 0 0 0 0 0 0 0 0 0 0 0 0 0
-0 -0 -0 0 -0 0 0 0 0 0 0 0 0 0 0 0 0 0 0 0 0 0 0 0 0 0 0 0 0 0 0 0
-0 -0 -0 -0 -0 -0 0 0 0 0 0 0 0 0 0 0 0 0 0 0 0 0 0 0 0 0 0 0 0 0 0 0
-0 -0 -0 -0 -0 -0 -0 0 0 0 0 0 0 0 0 0 0 0 0 0 0 0 0 0 0 0 0 0 0 0 0 0
-0 -0 -0 -0 -0 -0 -0 -0 0 0 0 0 0 0 0 0 0 0 0 0 0 0 0 0 0 0 0 0 0 0 0 0
-0 -0 -0 -0 -0 -0 -0 0 0 0 0 0 0 0 0 0 0 0 0 0 0 0 0 0 0 0 0 0 0 0 0 0
-0 -0 -0 -0 -0 -0 0 0 0 0 0 0 0 0 0 0 0 0 0 0 0 0 0 0 0 0 0 0 0 0 0 0
-0 -0 -0 -0 -0 0 0 0 0 0 0 0 0 0 0 0 0 0 0 0 0 0 0 0 0 0 0 0 0 0 0 0
0 -0 -0 -0 0 -0 0 0 0 0 0 0 0 0 0 0 0 0 0 0 0 0 0 0 0 0 0 0 0 0 0 0
Wind_Speed_500mb
20 11 4 14 27 36 45 47 54 57 56 63 68 74 75 79 80 85 85 83 82 78 81 91 98 98 97 92 86 79 76 73
26 21 12 12 17 24 32 41 51 54 57 56 63 68 70 74 78 84 81 83 80 74 72 77 87 95 99 95 89 84 79 76
32 29 22 16 15 15 22 28 36 46 57 54 53 57 62 67 73 75 79 76 76 69 63 70 81 88 95 96 93 89 84 79
34 31 26 23 20 13 9 14 23 31 44 58 50 52 56 60 63 70 75 76 75 70 68 75 83 89 96 97 94 91 86 80
35 32 29 28 27 26 22 13 8 11 24 39 49 44 47 51 55 60 68 74 76 73 71 73 76 79 94 96 97 92 86 80
41 36 31 30 31 28 27 25 19 11 3 14 27 33 38 43 46 49 56 63 67 70 71 73 77 80 87 96 96 92 85 79
40 38 35 33 32 31 30 28 23 21 14 5 7 20 28 34 38 43 48 52 58 64 68 72 76 80 82 87 96 93 86 81
48 41 38 36 33 31 30 28 26 23 19 13 5 6 12 19 27 36 41 45 51 56 61 66 70 73 76 80 89 89 85 78
45 43 40 34 32 29 27 26 26 25 24 20 16 10 3 12 20 27 34 39 43 48 52 57 59 64 68 73 79 79 74 69
38 38 36 36 33 30 28 27 24 23 21 20 19 17 13 7 6 14 21 27 32 38 44 50 51 57 61 61 73 74 68 64
36 34 33 33 33 31 32 28 28 26 22 17 13 10 10 8 5 2 5 13 19 25 29 34 42 51 50 55 65 64 60 52
39 42 41 37 33 33 31 32 29 24 20 16 12 9 6 4 5 4 6 9 14 19 23 26 34 38 38 44 48 50 49 48
38 40 39 36 35 34 32 31 27 24 21 18 14 11 8 6 6 9 11 14 17 21 25 30 34 34 33 37 39 41 43 46
43 40 38 37 37 34 33 30 27 24 22 20 18 13 10 8 7 8 11 16 18 22 25 29 33 37 40 38 36 37 39 40
40 40 40 39 36 32 31 29 27 24 23 21 17 15 11 7 6 6 9 11 14 18 22 26 29 35 41 44 42 32 29 31
42 42 40 36 35 34 32 28 25 24 20 18 18 15 12 10 8 6 6 9 10 13 16 18 23 27 32 39 45 42 35 30
42 43 44 42 37 34 31 30 26 22 22 18 16 14 12 10 8 8 7 8 10 10 12 12 13 16 22 28 39 41 39 31
49 52 50 47 42 39 35 29 26 24 21 19 18 15 14 11 6 7 5 4 5 8 10 12 13 20 25 27 28 31 33 34
55 57 54 48 41 37 40 37 30 25 23 22 20 16 13 12 12 9 8 5 4 5 6 11 16 22 26 28 28 27 27 28
59 57 49 43 37 37 34 34 33 32 26 24 22 23 20 16 13 12 12 12 15 17 18 20 24 26 25 26 28 32 33 31
Wind_Direction_500mb
21 14 135 215 214 211 214 216 217 220 228 235 231 232 230 224 221 231 238 244 244 239 238 236 237 237 234 233 233 232 233 233
10 2 342 285 257 241 233 227 224 224 222 225 233 234 232 229 229 229 235 239 244 242 239 240 239 237 235 233 232 232 232 232
30 21 7 340 311 280 259 247 236 227 222 220 224 229 231 232 229 228 232 239 244 243 240 243 242 239 236 233 231 231 231 231
44 39 31 24 20 8 318 274 256 241 227 221 220 224 228 231 230 227 229 236 238 239 238 237 238 237 235 233 230 230 230 230
48 41 39 36 38 38 34 17 334 265 234 225 221 223 227 231 232 231 232 235 238 238 240 240 238 239 236 232 228 226 227 227
39 35 36 37 38 43 42 39 36 25 293 228 227 229 228 226 229 232 234 236 239 241 240 239 238 234 236 230 227 224 223 223
36 35 32 34 35 37 41 43 43 44 41 2 257 234 232 234 233 231 232 234 236 238 238 239 239 236 233 229 227 222 222 222
29 31 28 29 30 34 34 36 42 44 42 39 21 275 251 239 238 237 235 235 237 239 240 240 239 238 235 230 223 221 217 217
25 27 28 29 32 29 31 34 35 36 36 32 33 28 305 238 239 239 239 237 237 238 238 238 239 239 234 229 218 216 215 216
25 25 28 32 30 27 31 30 29 34 32 26 22 21 24 9 271 247 244 240 237 236 234 234 231 229 232 225 210 209 211 213
29 30 32 32 30 25 28 27 31 26 22 17 14 13 10 8 4 322 247 241 236 230 225 225 219 216 217 209 207 205 208 212
33 31 29 25 24 26 25 28 24 18 14 9 1 346 331 307 274 231 195 200 198 201 198 198 199 200 202 204 206 209 209 214
32 32 29 28 27 24 20 17 12 9 6 4 2 353 331 296 258 235 216 214 206 198 193 187 190 196 202 207 210 214 219 221
27 26 24 21 19 19 16 10 6 4 3 1 358 351 341 313 281 245 222 219 217 216 215 212 206 205 204 205 218 215 215 220
22 21 19 15 11 7 1 359 359 1 358 356 352 348 343 324 293 260 235 231 225 228 223 221 217 212 212 208 204 207 210 213
6 4 360 359 357 355 351 347 346 345 348 352 347 342 333 324 308 284 255 234 226 226 233 229 225 218 213 208 205 202 204 194
357 349 342 338 335 334 337 337 334 330 328 338 337 330 326 323 327 308 279 243 227 225 224 222 212 199 196 199 201 197 196 196
345 340 334 328 323 315 311 313 319 317 313 313 317 317 318 305 301 324 306 274 270 225 204 191 180 165 173 168 167 191 197 198
337 335 331 328 329 317 307 299 297 300 298 291 292 299 306 299 287 268 260 257 231 211 207 192 170 173 180 183 182 181 187 189
332 332 330 329 330 326 320 310 293 282 283 282 276 272 278 275 275 268 257 234 218 211 203 195 186 180 179 177 196 191 185 182
Wind_Speed_850mb
20 11 4 14 27 36 45 47 54 57 56 63 68 74 75 79 80 85 85 83 82 78 81 91 98 98 97 92 86 79 76 73
26 21 12 12 17 24 32 41 51 54 57 56 63 68 70 74 78 84 81 83 80 74 72 77 87 95 99 95 89 84 79 76
32 29 22 16 15 15 22 28 36 46 57 54 53 57 62 67 73 75 79 76 76 69 63 70 81 88 95 96 93 89 84 79
34 31 26 23 20 13 9 14 23 31 44 58 50 52 56 60 63 70 75 76 75 70 68 75 83 89 96 97 94 91 86 80
35 32 29 28 27 26 22 13 8 11 24 39 49 44 47 51 55 60 68 74 76 73 71 73 76 79 94 96 97 92 86 80
41 36 31 30 31 28 27 25 19 11 3 14 27 33 38 43 46 49 56 63 67 70 71 73 77 80 87 96 96 92 85 79
40 38 35 33 32 31 30 28 23 21 14 5 7 20 28 34 38 43 48 52 58 64 68 72 76 80 82 87 96 93 86 81
48 41 38 36 33 31 30 28 26 23 19 13 5 6 12 19 27 36 41 45 51 56 61 66 70 73 76 80 89 89 85 78
45 43 40 34 32 29 27 26 26 25 24 20 16 10 3 12 20 27 34 39 43 48 52 57 59 64 68 73 79 79 74 69
38 38 36 36 33 30 28 27 24 23 21 20 19 17 13 7 6 14 21 27 32 38 44 50 51 57 61 61 73 74 68 64
36 34 33 33 33 31 32 28 28 26 22 17 13 10 10 8 5 2 5 13 19 25 29 34 42 51 50 55 65 64 60 52
39 42 41 37 33 33 31 32 29 24 20 16 12 9 6 4 5 4 6 9 14 19 23 26 34 38 38 44 48 50 49 48
38 40 39 36 35 34 32 31 27 24 21 18 14 11 8 6 6 9 11 14 17 21 25 30 34 34 33 37 39 41 43 46
43 40 38 37 37 34 33 30 27 24 22 20 18 13 10 8 7 8 11 16 18 22 25 29 33 37 40 38 36 37 39 40
40 40 40 39 36 32 31 29 27 24 23 21 17 15 11 7 6 6 9 11 14 18 22 26 29 35 41 44 42 32 29 31
42 42 40 36 35 34 32 28 25 24 20 18 18 15 12 10 8 6 6 9 10 13 16 18 23 27 32 39 45 42 35 30
42 43 44 42 37 34 31 30 26 22 22 18 16 14 12 10 8 8 7 8 10 10 12 12 13 16 22 28 39 41 39 31
49 52 50 47 42 39 35 29 26 24 21 19 18 15 14 11 6 7 5 4 5 8 10 12 13 20 25 27 28 31 33 34
55 57 54 48 41 37 40 37 30 25 23 22 20 16 13 12 12 9 8 5 4 5 6 11 16 22 26 28 28 27 27 28
59 57 49 43 37 37 34 34 33 32 26 24 22 23 20 16 13 12 12 12 15 17 18 20 24 26 25 26 28 32 33 31
Wind_Direction_850mb
21 14 135 215 214 211 214 216 217 220 228 235 231 232 230 224 221 231 238 244 244 239 238 236 237 237 234 233 233 232 233 233
10 2 342 285 257 241 233 227 224 224 222 225 233 234 232 229 229 229 235 239 244 242 239 240 239 237 235 233 232 232 232 232
30 21 7 340 311 280 259 247 236 227 222 220 224 229 231 232 229 228 232 239 244 243 240 243 242 239 236 233 231 231 231 231
44 39 31 24 20 8 318 274 256 241 227 221 220 224 228 231 230 227 229 236 238 239 238 237 238 237 235 233 230 230 230 230
48 41 39 36 38 38 34 17 334 265 234 225 221 223 227 231 232 231 232 235 238 238 240 240 238 239 236 232 228 226 227 227
39 35 36 37 38 43 42 39 36 25 293 228 227 229 228 226 229 232 234 236 239 241 240 239 238 234 236 230 227 224 223 223
36 35 32 34 35 37 41 43 43 44 41 2 257 234 232 234 233 231 232 234 236 238 238 239 239 236 233 229 227 222 222 222
29 31 28 29 30 34 34 36 42 44 42 39 21 275 251 239 238 237 235 235 237 239 240 240 239 238 235 230 223 221 217 217
25 27 28 29 32 29 31 34 35 36 36 32 33 28 305 238 239 239 239 237 237 238 238 238 239 239 234 229 218 216 215 216
25 25 28 32 30 27 31 30 29 34 32 26 22 21 24 9 271 247 244 240 237 236 234 234 231 229 232 225 210 209 211 213
29 30 32 32 30 25 28 27 31 26 22 17 14 13 10 8 4 322 247 241 236 230 225 225 219 216 217 209 207 205 208 212
33 31 29 25 24 26 25 28 24 18 14 9 1 346 331 307 274 231 195 200 198 201 198 198 199 200 202 204 206 209 209 214
32 32 29 28 27 24 20 17 12 9 6 4 2 353 331 296 258 235 216 214 206 198 193 187 190 196 202 207 210 214 219 221
27 26 24 21 19 19 16 10 6 4 3 1 358 351 341 313 281 245 222 219 217 216 215 212 206 205 204 205 218 215 215 220
22 21 19 15 11 7 1 359 359 1 358 356 352 348 343 324 293 260 235 231 225 228 223 221 217 212 212 208 204 207 210 213
6 4 360 359 357 355 351 347 346 345 348 352 347 342 333 324 308 284 255 234 226 226 233 229 225 218 213 208 205 202 204 194
357 349 342 338 335 334 337 337 334 330 328 338 337 330 326 323 327 308 279 243 227 225 224 222 212 199 196 199 201 197 196 196
345 340 334 328 323 315 311 313 319 317 313 313 317 317 318 305 301 324 306 274 270 225 204 191 180 165 173 168 167 191 197 198
337 335 331 328 329 317 307 299 297 300 298 291 292 299 306 299 287 268 260 257 231 211 207 192 170 173 180 183 182 181 187 189
332 332 330 329 330 326 320 310 293 282 283 282 276 272 278 275 275 268 257 234 218 211 203 195 186 180 179 177 196 191 185 182